Location: Wavehorne
(51.0500°N, 0.8333°E)
Time: 15:34:40
(UTC+00:00)

Cosmos 2058 - Pass Details

Date: 20 June 2021
Orbit: 563 x 582 km, 82.5° (Epoch: 04 August)

Event Time Altitude Azimuth Distance (km) Brightness Sun altitude
Exits shadow 02:00:37 14° 229° (SW) 1,623 4.6 -10.8°
Maximum altitude 02:03:39 32° 289° (WNW) 982 4.0 -10.6°
Drops below altitude 10° 02:07:23 10° 353° (N) 1,872 6.4 -10.3°
Sets 02:09:45 0° 4° (N) 2,776 7.7 -10.1°
